Starlink 32224

operational
NORAD ID: 60941 Int'l Des: 2024-155 Owner: SPXS Country: US Constellation: starlink
LEOCIRCULAR

Starlink 32224について

説明を読み込み中...

リアルタイム位置

3D地球を読み込み中...

次回通過

高度履歴

Altitude vs Time

uPlot chart will show altitude changes over time

軌道要素

1 60941U 24155T 25352.13439277 .00000377 00000-0 24861-4 0 9992
2 60941 53.1605 148.5363 0001005 83.3127 276.7988 15.30196228 73860
Epoch: Dec 18, 2025 • Age: 16 hours

現在のステータス

高度 480.7 km
速度 7.63 km/s
衛星直下点 51.26°N, 162.48°W
打ち上げ日 Aug 31, 2024
運用期間 1.2 years
タイプ internet

技術仕様

分類 Payload
質量 730.00 kg
乾燥質量 700.00 kg
総質量 730.00 kg
長さ 0.30 m
直径 4.10 m
スパン 29.00 m
形状 Box + pan
製造者 SPXS
バスタイプ Starlink V2M
フェーズステータス In Orbit
所有者/国 SPXS/US

大規模コンステレーション

Loading constellations...